Location: Winthrop
(48.4780°N, 120.1850°W)
Time: 18:33:22
(UTC-08:00)

Envisat - Pass Details

Date: 01 December 2022
Orbit: 763 x 765 km, 98.2° (Epoch: 05 February)

Event Time Altitude Azimuth Distance (km) Brightness Sun altitude
Rises 05:54:22 0° 2° (N) 3,245 6.1 -15.5°
Reaches altitude 10° 05:57:18 10° 345° (NNW) 2,314 5.2 -15.0°
Enters shadow 05:59:48 18° 316° (NW) 1,828 4.4 -14.6°
